KB3HHA Weather Reports


Display with metric or nautical units.
time (UTC)temp
F
wind
direction
speed
MPH
gust
MPH
rain 1hr
in
rain 24hr
in
rain mn
in
humidity
%
barometer
mb
20170821234200 81 270 0.0 0.0 0.00 0.00 0.00 78 1019.6
20170821233700 81 270 0.0 0.0 0.00 0.00 0.00 77 1019.7
20170821233200 82 270 0.0 0.0 0.00 0.00 0.00 76 1019.6
20170821232700 82 270 0.0 0.0 0.00 0.00 0.00 76 1019.6
20170821232200 82 270 0.0 0.0 0.00 0.00 0.00 75 1019.5
20170821231700 83 270 0.0 2.0 0.00 0.00 0.00 74 1019.3
20170821231200 83 247 0.0 3.0 0.00 0.00 0.00 73 1019.2
20170821230700 83 270 0.0 3.0 0.00 0.00 0.00 73 1019.1
20170821230200 84 270 1.0 2.0 0.00 0.00 0.00 73 1019.0
20170821225702 84 247 0.0 2.0 0.00 0.00 0.00 72 1018.9
20170821225200 84 270 0.0 6.0 0.00 0.00 0.00 72 1019.0
20170821224700 84 270 0.0 6.0 0.00 0.00 0.00 71 1018.9
20170821224200 85 247 0.0 4.0 0.00 0.00 0.00 71 1018.9
20170821223700 85 247 1.0 4.0 0.00 0.00 0.00 72 1018.9
20170821223200 85 270 0.0 2.0 0.00 0.00 0.00 73 1019.0
20170821222700 85 225 0.0 0.0 0.00 0.00 0.00 72 1018.8
20170821222200 85 270 0.0 0.0 0.00 0.00 0.00 73 1018.8
20170821221700 85 270 0.0 0.0 0.00 0.00 0.00 72 1018.8
20170821221200 85 292 0.0 0.0 0.00 0.00 0.00 71 1018.9
20170821220700 85 270 0.0 0.0 0.00 0.00 0.00 69 1018.8
20170821220200 85 270 0.0 0.0 0.00 0.00 0.00 69 1018.9
20170821215700 85 270 0.0 0.0 0.00 0.00 0.00 69 1018.8
20170821215200 86 270 0.0 0.0 0.00 0.00 0.00 69 1019.0
20170821214700 86 270 0.0 0.0 0.00 0.00 0.00 68 1019.0
20170821214200 86 247 0.0 0.0 0.00 0.00 0.00 68 1019.1
20170821213700 86 247 0.0 0.0 0.00 0.00 0.00 68 1019.0
20170821213200 86 270 0.0 3.0 0.00 0.00 0.00 66 1019.0
20170821212700 87 270 0.0 3.0 0.00 0.00 0.00 66 1019.1
20170821212200 87 247 0.0 2.0 0.00 0.00 0.00 66 1019.1
20170821211700 87 270 0.0 2.0 0.00 0.00 0.00 65 1019.1
20170821211200 87 247 0.0 3.0 0.00 0.00 0.00 65 1019.2
20170821210700 88 247 1.0 3.0 0.00 0.00 0.00 65 1019.3
20170821210200 88 270 0.0 1.0 0.00 0.00 0.00 63 1019.2
20170821205700 88 270 0.0 2.0 0.00 0.00 0.00 62 1019.3
20170821205200 88 270 1.0 4.0 0.00 0.00 0.00 63 1019.3
20170821204700 88 247 0.0 4.0 0.00 0.00 0.00 63 1019.4
20170821204200 88 270 0.0 0.0 0.00 0.00 0.00 65 1019.4
20170821203700 87 270 0.0 0.0 0.00 0.00 0.00 66 1019.4
20170821203200 88 270 0.0 3.0 0.00 0.00 0.00 65 1019.3
20170821202700 89 270 0.0 3.0 0.00 0.00 0.00 66 1019.3
20170821202200 88 270 0.0 4.0 0.00 0.00 0.00 67 1019.2
20170821201701 88 247 1.0 5.0 0.00 0.00 0.00 67 1019.2
20170821201200 89 270 2.0 5.0 0.00 0.00 0.00 64 1019.3
20170821200700 91 270 3.0 5.0 0.00 0.00 0.00 66 1019.4
20170821200200 91 270 0.0 0.0 0.00 0.00 0.00 65 1019.2
20170821195700 90 270 0.0 0.0 0.00 0.00 0.00 66 1019.3
20170821195200 90 292 0.0 1.0 0.00 0.00 0.00 66 1019.3
20170821194700 90 247 0.0 1.0 0.00 0.00 0.00 66 1019.4
20170821194200 89 225 0.0 0.0 0.00 0.00 0.00 68 1019.3
20170821193700 89 247 0.0 0.0 0.00 0.00 0.00 71 1019.4
20170821193201 88 247 0.0 0.0 0.00 0.00 0.00 70 1019.4
20170821192700 88 270 0.0 0.0 0.00 0.00 0.00 72 1019.4
20170821192200 87 270 0.0 0.0 0.00 0.00 0.00 75 1019.4
20170821191701 87 270 0.0 0.0 0.00 0.00 0.00 77 1019.5
20170821191200 87 270 0.0 0.0 0.00 0.00 0.00 78 1019.5
20170821190700 87 270 0.0 0.0 0.00 0.00 0.00 78 1019.7
20170821190200 87 270 0.0 0.0 0.00 0.00 0.00 79 1019.7
20170821185700 87 270 0.0 0.0 0.00 0.00 0.00 77 1019.7
20170821185200 87 270 0.0 0.0 0.00 0.00 0.00 74 1019.7
20170821184700 87 270 0.0 0.0 0.00 0.00 0.00 72 1019.8
20170821184200 88 270 0.0 0.0 0.00 0.00 0.00 70 1019.9
20170821183700 88 270 0.0 0.0 0.00 0.00 0.00 68 1020.0
20170821183201 89 270 0.0 1.0 0.00 0.00 0.00 68 1020.2
20170821182700 89 270 0.0 1.0 0.00 0.00 0.00 67 1020.2
20170821182200 89 270 0.0 0.0 0.00 0.00 0.00 66 1020.3
20170821181700 89 270 0.0 0.0 0.00 0.00 0.00 67 1020.3
20170821181200 90 247 0.0 0.0 0.00 0.00 0.00 67 1020.3
20170821180700 90 202 0.0 1.0 0.00 0.00 0.00 67 1020.3
20170821180200 90 247 0.0 1.0 0.00 0.00 0.00 66 1020.4
20170821175700 90 270 0.0 0.0 0.00 0.00 0.00 66 1020.5
20170821175200 89 270 0.0 0.0 0.00 0.00 0.00 66 1020.5
20170821174700 89 225 0.0 1.0 0.00 0.00 0.00 68 1020.5
20170821174200 89 247 0.0 1.0 0.00 0.00 0.00 68 1020.6
20170821173701 90 247 0.0 2.0 0.00 0.00 0.00 68 1020.6
20170821173200 89 270 0.0 4.0 0.00 0.00 0.00 68 1020.6
20170821172700 89 270 1.0 4.0 0.00 0.00 0.00 69 1020.6
20170821172200 89 270 0.0 3.0 0.00 0.00 0.00 68 1020.7
20170821171700 89 247 1.0 3.0 0.00 0.00 0.00 67 1020.7
20170821171200 90 247 0.0 3.0 0.00 0.00 0.00 67 1020.8
20170821170700 90 247 0.0 3.0 0.00 0.00 0.00 68 1020.8
20170821170202 89 225 0.0 2.0 0.00 0.00 0.00 69 1020.9
20170821165700 89 247 0.0 1.0 0.00 0.00 0.00 67 1021.0
20170821165200 89 270 0.0 1.0 0.00 0.00 0.00 68 1021.0
20170821164700 90 247 0.0 0.0 0.00 0.00 0.00 67 1021.1
20170821164200 89 247 0.0 2.0 0.00 0.00 0.00 70 1021.0
20170821163700 89 270 0.0 2.0 0.00 0.00 0.00 70 1021.1
20170821163200 88 247 0.0 1.0 0.00 0.00 0.00 68 1021.2
20170821162700 88 225 0.0 2.0 0.00 0.00 0.00 69 1021.2
20170821162200 89 225 0.0 3.0 0.00 0.00 0.00 68 1021.3
20170821161701 88 247 0.0 3.0 0.00 0.00 0.00 69 1021.4
20170821161200 88 0 1.0 3.0 0.00 0.00 0.00 72 1021.3
20170821160700 88 247 1.0 3.0 0.00 0.00 0.00 70 1021.4
20170821160200 88 270 0.0 3.0 0.00 0.00 0.00 71 1021.4
20170821155701 88 225 0.0 5.0 0.00 0.00 0.00 71 1021.5
20170821155200 88 225 1.0 5.0 0.00 0.00 0.00 72 1021.5
20170821154700 87 225 0.0 0.0 0.00 0.00 0.00 74 1021.6
20170821154201 86 247 0.0 3.0 0.00 0.00 0.00 74 1021.6
20170821153700 86 315 0.0 3.0 0.00 0.00 0.00 75 1021.7
20170821153200 85 247 0.0 3.0 0.00 0.00 0.00 76 1021.7
20170821152700 85 292 0.0 3.0 0.00 0.00 0.00 77 1021.7
20170821152200 84 247 0.0 1.0 0.00 0.00 0.00 78 1021.8
20170821151700 84 225 0.0 0.0 0.00 0.00 0.00 78 1021.8
20170821151200 84 225 0.0 0.0 0.00 0.00 0.00 79 1021.8
20170821150700 83 247 0.0 3.0 0.00 0.00 0.00 80 1021.8
20170821150201 83 225 0.0 3.0 0.00 0.00 0.00 81 1021.9
20170821145700 82 247 0.0 3.0 0.00 0.00 0.00 81 1022.0
20170821145200 82 247 1.0 3.0 0.00 0.00 0.00 82 1022.1
20170821144700 82 225 0.0 2.0 0.00 0.00 0.00 83 1022.1
20170821144200 81 225 0.0 2.0 0.00 0.00 0.00 83 1022.0
20170821143700 81 270 0.0 4.0 0.00 0.00 0.00 84 1022.1
20170821143200 81 247 0.0 4.0 0.00 0.00 0.00 84 1021.9
20170821142700 81 202 0.0 2.0 0.00 0.00 0.00 85 1022.0
20170821142200 80 225 0.0 3.0 0.00 0.00 0.00 85 1022.0
20170821141701 80 225 0.0 3.0 0.00 0.00 0.00 85 1022.0
20170821141200 80 247 0.0 0.0 0.00 0.00 0.00 87 1022.0
20170821140700 80 292 0.0 0.0 0.00 0.00 0.00 87 1021.9
20170821140200 79 270 0.0 0.0 0.00 0.00 0.00 87 1022.0
20170821135700 79 270 0.0 0.0 0.00 0.00 0.00 87 1021.9
20170821135200 79 225 0.0 0.0 0.00 0.00 0.00 88 1021.9
20170821134700 78 270 0.0 3.0 0.00 0.00 0.00 88 1021.9
20170821134202 78 225 1.0 3.0 0.00 0.00 0.00 88 1021.9
20170821133700 78 225 0.0 2.0 0.00 0.00 0.00 89 1021.9
20170821133200 77 270 0.0 2.0 0.00 0.00 0.00 89 1021.9
20170821132700 77 270 0.0 1.0 0.00 0.00 0.00 89 1021.9
20170821132200 77 270 0.0 1.0 0.00 0.00 0.00 90 1021.9
20170821131701 77 247 0.0 3.0 0.00 0.00 0.00 90 1022.0
20170821131200 76 247 0.0 3.0 0.00 0.00 0.00 91 1022.0
20170821130700 76 247 0.0 0.0 0.00 0.00 0.00 92 1021.9
20170821130200 75 247 0.0 0.0 0.00 0.00 0.00 92 1021.9
20170821125700 75 270 0.0 0.0 0.00 0.01 0.00 93 1021.9
20170821125200 74 270 0.0 0.0 0.00 0.01 0.00 94 1021.8
20170821124700 74 270 0.0 0.0 0.00 0.01 0.00 95 1021.9
20170821124200 73 270 0.0 0.0 0.00 0.01 0.00 97 1021.9
20170821123702 73 270 0.0 0.0 0.00 0.01 0.00 98 1022.0
20170821123200 72 270 0.0 0.0 0.00 0.01 0.00 99 1022.1
20170821122700 72 202 0.0 0.0 0.00 0.01 0.00 99 1022.1
20170821122200 71 180 0.0 0.0 0.00 0.01 0.00 99 1022.2
20170821121700 70 157 0.0 0.0 0.00 0.01 0.00 98 1022.3
20170821121200 70 135 0.0 0.0 0.00 0.01 0.00 98 1022.2
20170821120700 70 135 0.0 0.0 0.00 0.01 0.00 98 1022.1
20170821120200 69 135 0.0 0.0 0.00 0.01 0.00 98 1022.2
20170821115700 69 135 0.0 0.0 0.00 0.01 0.00 98 1022.4
20170821115200 69 135 0.0 0.0 0.00 0.01 0.00 98 1022.4
20170821114700 68 135 0.0 0.0 0.00 0.01 0.00 98 1022.3
20170821114200 68 135 0.0 0.0 0.00 0.01 0.00 98 1022.4
20170821113700 68 135 0.0 0.0 0.00 0.01 0.00 98 1022.4
20170821113200 68 135 0.0 0.0 0.00 0.01 0.00 98 1022.4
20170821112700 68 135 0.0 0.0 0.00 0.01 0.00 98 1022.3
20170821112200 67 135 0.0 0.0 0.00 0.01 0.00 98 1022.4
20170821111700 67 135 0.0 0.0 0.00 0.01 0.00 98 1022.4
20170821111200 67 135 0.0 0.0 0.00 0.01 0.00 97 1022.3
20170821110700 67 135 0.0 0.0 0.00 0.01 0.00 97 1022.2
20170821110201 67 135 0.0 0.0 0.00 0.01 0.00 97 1022.2
20170821105700 67 135 0.0 0.0 0.00 0.01 0.00 97 1022.2
20170821105200 67 135 0.0 0.0 0.00 0.01 0.00 97 1022.1
20170821104700 67 135 0.0 0.0 0.00 0.01 0.00 97 1022.1
20170821104200 67 135 0.0 0.0 0.00 0.01 0.00 97 1022.1
20170821103700 67 135 0.0 0.0 0.00 0.01 0.00 97 1022.0
20170821103200 67 135 0.0 0.0 0.00 0.01 0.00 97 1022.0
20170821102700 67 135 0.0 0.0 0.00 0.01 0.00 97 1022.0
20170821102200 67 135 0.0 0.0 0.00 0.01 0.00 97 1022.1
20170821101700 67 135 0.0 0.0 0.00 0.01 0.00 97 1022.0
20170821101200 67 135 0.0 0.0 0.00 0.01 0.00 97 1022.0
20170821100718 67 135 0.0 0.0 0.00 0.01 0.00 97 1022.1
20170821100200 67 135 0.0 0.0 0.00 0.01 0.00 97 1022.2
20170821095701 67 135 0.0 0.0 0.00 0.01 0.00 97 1022.2
20170821095200 67 135 0.0 0.0 0.00 0.01 0.00 97 1022.2
20170821094700 67 135 0.0 0.0 0.00 0.01 0.00 97 1022.1
20170821094200 67 135 0.0 0.0 0.00 0.01 0.00 97 1022.2
20170821093700 67 135 0.0 0.0 0.00 0.01 0.00 97 1022.2
20170821093202 67 135 0.0 0.0 0.00 0.01 0.00 97 1022.1
20170821092701 67 135 0.0 0.0 0.00 0.01 0.00 97 1022.1
20170821092203 67 135 0.0 0.0 0.00 0.01 0.00 97 1022.1
20170821091700 67 135 0.0 0.0 0.00 0.01 0.00 97 1022.1
20170821091200 67 135 0.0 0.0 0.00 0.01 0.00 97 1022.0
20170821090700 66 135 0.0 0.0 0.00 0.01 0.00 97 1022.1
20170821090200 66 135 0.0 0.0 0.00 0.01 0.00 97 1022.1
20170821085700 66 135 0.0 0.0 0.00 0.01 0.00 97 1022.0
20170821085200 66 135 0.0 0.0 0.00 0.01 0.00 97 1021.9
20170821084700 66 135 0.0 0.0 0.00 0.01 0.00 97 1021.9
20170821084200 66 135 0.0 0.0 0.00 0.01 0.00 97 1021.8
20170821083700 66 135 0.0 0.0 0.00 0.01 0.00 97 1021.8
20170821083200 66 135 0.0 0.0 0.00 0.01 0.00 97 1021.8
20170821082700 66 135 0.0 0.0 0.00 0.01 0.00 97 1021.7
20170821082200 66 135 0.0 0.0 0.00 0.01 0.00 97 1021.6
20170821081701 66 135 0.0 0.0 0.00 0.01 0.00 97 1021.6
20170821081200 66 135 0.0 0.0 0.00 0.01 0.00 97 1021.6
20170821080700 66 135 0.0 0.0 0.00 0.01 0.00 97 1021.6
20170821080201 66 135 0.0 0.0 0.00 0.01 0.00 97 1021.6
20170821075700 66 135 0.0 0.0 0.00 0.01 0.00 97 1021.6
20170821075200 66 135 0.0 0.0 0.00 0.01 0.00 97 1021.6
20170821074700 66 135 0.0 0.0 0.00 0.01 0.00 97 1021.6
20170821074200 66 135 0.0 0.0 0.00 0.01 0.00 97 1021.7
20170821073700 66 135 0.0 0.0 0.00 0.01 0.00 97 1021.7
20170821073200 66 135 0.0 0.0 0.00 0.01 0.00 97 1021.6
20170821072700 66 135 0.0 0.0 0.00 0.01 0.00 97 1021.6
20170821072200 66 135 0.0 0.0 0.00 0.01 0.00 97 1021.7
20170821071700 66 135 0.0 0.0 0.00 0.01 0.00 97 1021.7
20170821071200 66 135 0.0 0.0 0.00 0.01 0.00 97 1021.7
20170821070700 66 135 0.0 0.0 0.00 0.01 0.00 97 1021.8
20170821070200 66 135 0.0 0.0 0.00 0.01 0.00 97 1021.8
20170821065700 66 135 0.0 0.0 0.00 0.01 0.00 97 1021.7
20170821065201 66 135 0.0 0.0 0.00 0.01 0.00 97 1021.8
20170821064700 66 135 0.0 0.0 0.00 0.01 0.00 97 1021.8
20170821064200 66 135 0.0 0.0 0.00 0.01 0.00 96 1021.8
20170821063700 66 135 0.0 0.0 0.00 0.01 0.00 96 1021.7
20170821063200 66 135 0.0 0.0 0.00 0.01 0.00 96 1021.7
20170821062701 66 135 0.0 0.0 0.00 0.01 0.00 97 1021.8
20170821062200 66 135 0.0 0.0 0.00 0.01 0.00 97 1021.8
20170821061700 66 135 0.0 0.0 0.00 0.01 0.00 97 1021.8
20170821061200 66 135 0.0 0.0 0.00 0.01 0.00 96 1021.7
20170821060706 66 135 0.0 0.0 0.00 0.01 0.00 96 1021.8
20170821060200 66 135 0.0 0.0 0.00 0.01 0.00 96 1021.8
20170821055700 66 135 0.0 0.0 0.00 0.01 0.00 96 1021.8
20170821055200 66 135 0.0 0.0 0.00 0.01 0.00 96 1021.8
20170821054700 66 135 0.0 0.0 0.00 0.01 0.00 96 1021.7
20170821054200 66 135 0.0 0.0 0.00 0.01 0.00 96 1021.6
20170821053700 66 135 0.0 0.0 0.00 0.01 0.00 96 1021.7
20170821053200 66 135 0.0 0.0 0.00 0.01 0.00 96 1021.8
20170821052700 66 135 0.0 0.0 0.00 0.01 0.00 96 1021.9
20170821052200 67 135 0.0 0.0 0.00 0.01 0.00 96 1021.9
20170821051700 66 135 0.0 0.0 0.00 0.01 0.00 96 1021.8
20170821051200 66 135 0.0 0.0 0.00 0.01 0.00 96 1022.0
20170821050700 66 135 0.0 0.0 0.00 0.01 0.00 96 1021.9
20170821050200 66 135 0.0 0.0 0.00 0.01 0.00 96 1021.9
20170821045700 66 135 0.0 0.0 0.00 0.01 0.00 96 1022.0
20170821045200 66 135 0.0 0.0 0.00 0.01 0.00 96 1022.0
20170821044700 66 135 0.0 0.0 0.00 0.01 0.00 96 1022.0
20170821044200 66 135 0.0 0.0 0.00 0.01 0.00 96 1022.1
20170821043700 66 135 0.0 0.0 0.00 0.01 0.00 96 1022.0
20170821043200 66 135 0.0 0.0 0.00 0.01 0.00 96 1022.0
20170821042700 66 135 0.0 0.0 0.00 0.01 0.00 96 1022.0
20170821042200 66 135 0.0 0.0 0.00 0.01 0.00 96 1021.9
20170821041700 66 135 0.0 0.0 0.00 0.01 0.00 96 1021.8
20170821041200 66 135 0.0 0.0 0.00 0.01 0.00 96 1021.8
20170821040700 67 135 0.0 0.0 0.00 0.01 0.00 96 1021.8
20170821040200 67 135 0.0 0.0 0.00 0.01 0.00 96 1021.8
20170821035700 67 135 0.0 0.0 0.00 0.01 0.01 96 1021.8
20170821035200 67 135 0.0 0.0 0.00 0.01 0.01 95 1021.7
20170821034700 67 135 0.0 0.0 0.00 0.01 0.01 95 1021.8
20170821034200 67 135 0.0 0.0 0.00 0.01 0.01 95 1021.8
20170821033700 67 135 0.0 0.0 0.00 0.01 0.01 95 1021.8
20170821033200 67 135 0.0 0.0 0.00 0.01 0.01 95 1021.8
20170821032700 67 135 0.0 0.0 0.00 0.01 0.01 95 1021.7
20170821032200 67 135 0.0 0.0 0.00 0.01 0.01 95 1021.7
20170821031700 67 135 0.0 0.0 0.00 0.01 0.01 95 1021.7
20170821031202 67 135 0.0 0.0 0.00 0.01 0.01 95 1021.7
20170821030700 67 135 0.0 0.0 0.00 0.01 0.01 95 1021.8
20170821030201 67 135 0.0 0.0 0.00 0.01 0.01 95 1021.8
20170821025700 67 135 0.0 0.0 0.00 0.01 0.01 95 1021.8
20170821025200 67 135 0.0 0.0 0.00 0.01 0.01 95 1021.9
20170821024700 67 135 0.0 0.0 0.00 0.01 0.01 95 1021.9
20170821024200 67 135 0.0 0.0 0.00 0.01 0.01 95 1021.9
20170821023700 67 135 0.0 0.0 0.00 0.01 0.01 95 1021.8
20170821023200 67 135 0.0 0.0 0.00 0.01 0.01 94 1021.8
20170821022700 67 135 0.0 0.0 0.00 0.01 0.01 94 1021.8
20170821022200 67 135 0.0 0.0 0.00 0.01 0.01 94 1021.8
20170821021700 68 135 0.0 0.0 0.00 0.01 0.01 94 1021.8
20170821021200 68 135 0.0 0.0 0.00 0.01 0.01 94 1021.7
20170821020700 68 135 0.0 0.0 0.00 0.01 0.01 94 1021.6
20170821020201 68 135 0.0 0.0 0.00 0.01 0.01 94 1021.6
20170821015700 68 135 0.0 0.0 0.00 0.01 0.01 94 1021.6
20170821015200 68 135 0.0 0.0 0.00 0.01 0.01 94 1021.4
20170821014700 68 135 0.0 0.0 0.00 0.01 0.01 94 1021.3
20170821014200 68 135 0.0 0.0 0.00 0.01 0.01 94 1021.2
20170821013700 69 135 0.0 0.0 0.00 0.01 0.01 94 1021.2
20170821013200 69 135 0.0 0.0 0.00 0.01 0.01 93 1021.0
20170821012701 69 135 0.0 0.0 0.00 0.01 0.01 93 1021.0
20170821012200 69 135 0.0 0.0 0.00 0.01 0.01 93 1020.9
20170821011700 69 135 0.0 0.0 0.00 0.01 0.01 93 1020.9
20170821011200 69 135 0.0 0.0 0.00 0.01 0.01 92 1020.8
20170821010700 69 135 0.0 0.0 0.00 0.01 0.01 92 1020.7
20170821010200 70 135 0.0 0.0 0.00 0.01 0.01 92 1020.7
20170821005700 70 135 0.0 0.0 0.00 0.04 0.01 92 1020.5
20170821005203 70 135 0.0 0.0 0.00 0.04 0.01 92 1020.4
20170821004700 70 135 0.0 0.0 0.00 0.04 0.01 92 1020.4
20170821004200 70 135 0.0 0.0 0.00 0.04 0.01 91 1020.3
20170821003700 71 135 0.0 0.0 0.00 0.04 0.01 91 1020.2
20170821003204 71 135 0.0 0.0 0.00 0.04 0.01 90 1020.1
20170821002700 71 135 0.0 0.0 0.00 0.04 0.01 90 1020.0
20170821002200 72 135 0.0 0.0 0.00 0.04 0.01 90 1019.9
20170821001700 72 135 0.0 0.0 0.00 0.04 0.01 90 1019.8
20170821001200 72 135 0.0 0.0 0.00 0.04 0.01 89 1019.8
20170821000700 73 135 0.0 0.0 0.00 0.04 0.01 89 1019.7
20170821000200 73 135 0.0 0.0 0.00 0.04 0.01 88 1019.7
20170820235700 73 135 0.0 0.0 0.00 0.04 0.01 87 1019.7
20170820235201 74 135 0.0 0.0 0.00 0.04 0.01 86 1019.6
20170820234700 74 135 0.0 0.0 0.00 0.04 0.01 86 1019.7